{"data":{"norad_id":55832,"epoch":"2026-05-24T23:48:54.680256Z","epoch_age_seconds":89799,"freshness":"FRESH","line1":"1 55832U 23029AN  26144.99229954  .00000010  00000+0 -62568-5 0  9998","line2":"2 55832  87.9168 309.5893 0002026 101.0866 259.0495 13.19722937155844","mean_motion":13.19722937,"eccentricity":0.0002026,"inclination_deg":87.9168,"raan_deg":309.5893,"arg_perigee_deg":101.0866,"mean_anomaly_deg":259.0495,"bstar":-6.2568e-6,"rev_number":15584,"period_min":109.11381166667,"perigee_km":1184.2459853636,"apogee_km":1187.3108838978,"semimajor_km":7563.9154346307,"source":"CELESTRAK","updated_at":"2026-05-25T13:38:22.698500Z"}}